Location: Rimouski
(48.4330°N, 68.5170°W)
Time: 10:52:29
(UTC-04:00)

OTV 5 (USA 277) - Visible Passes

Search period start: 19 April 2019 00:00
Search period end: 29 April 2019 00:00
Orbit: 310 x 325 km, 54.5° (Epoch: 16 April)

Date Brightness Start Highest point End Pass type
(mag) Time Alt. Az. Time Alt. Az. Time Alt. Az.
19 Apr ? 02:35:55 17° NE 02:35:55 17° NE 02:36:59 10° ENE visible
19 Apr ? 04:06:52 10° NW 04:09:31 54° NNE 04:12:09 10° ESE visible
20 Apr ? 02:50:26 24° NE 02:50:26 24° NE 02:52:08 10° ENE visible
20 Apr ? 04:21:37 10° WNW 04:24:18 69° SSW 04:26:57 10° SE visible
21 Apr ? 03:05:17 33° ENE 03:05:17 33° ENE 03:07:15 10° E visible
21 Apr ? 04:36:34 10° WNW 04:38:57 28° SW 04:41:18 10° SSE visible
22 Apr ? 03:20:42 29° ESE 03:20:42 29° ESE 03:22:11 10° ESE visible
22 Apr ? 04:52:11 10° WSW 04:53:28 13° SW 04:54:46 10° SSW visible
23 Apr ? 21:27:55 10° SW 21:29:39 33° SSW 21:29:39 33° SSW visible
24 Apr ? 20:09:24 10° S 20:11:18 17° SE 20:13:11 10° E visible
24 Apr ? 21:42:40 10° WSW 21:45:22 61° NNW 21:45:51 49° NNE visible
25 Apr ? 20:23:17 10° SSW 20:25:52 38° SE 20:28:27 10° ENE visible
25 Apr ? 21:57:41 10° W 22:00:14 34° NNW 22:01:13 25° NNE visible
26 Apr ? 20:37:50 10° WSW 20:40:34 89° NNW 20:43:18 10° ENE visible
26 Apr ? 22:12:50 10° WNW 22:15:10 25° N 22:16:04 20° NNE visible
27 Apr ? 20:52:44 10° W 20:55:23 44° NNW 20:58:01 10° NE visible
27 Apr ? 22:27:57 10° WNW 22:30:10 21° N 22:30:36 21° NNE visible
28 Apr ? 21:07:50 10° WNW 21:10:17 28° NNW 21:12:43 10° NE visible
28 Apr ? 22:42:56 10° NW 22:44:55 22° N 22:44:55 22° N visible
